N7DTY Weather Reports


time (UTC)temp
F
wind
direction
speed
knots
gust
knots
rain 1hr
in
rain 24hr
in
rain mn
in
humidity
%
barometer
mb
20260510233058 62 206 2.6 8.7 0.00 0.00 0.00 71 1019.0
20260510231655 62 173 2.6 11.3 0.00 0.00 0.00 69 1018.9
20260510230054 61 177 5.2 11.3 0.00 0.00 0.00 69 1018.9
20260510224601 62 188 2.6 7.0 0.00 0.00 0.00 71 1018.8
20260510223050 62 148 4.3 13.9 0.00 0.00 0.00 68 1018.7
20260510221553 63 47 2.6 8.7 0.00 0.00 0.00 67 1018.6
20260510220049 63 184 2.6 8.7 0.00 0.00 0.00 68 1018.6
20260510214602 63 161 2.6 11.3 0.00 0.00 0.00 69 1018.6
20260510213051 63 189 1.7 8.7 0.00 0.00 0.00 71 1018.6
20260510211546 62 198 3.5 11.3 0.00 0.00 0.00 66 1018.4
20260510210044 63 219 3.5 11.3 0.00 0.00 0.00 67 1018.3
20260510204543 61 163 4.3 9.6 0.00 0.00 0.00 69 1018.3
20260510203041 62 194 2.6 9.6 0.00 0.00 0.00 71 1018.3
20260510201541 61 192 2.6 10.4 0.00 0.00 0.00 72 1018.1
20260510200038 61 158 3.5 8.7 0.00 0.00 0.00 71 1018.4
20260510194542 59 196 2.6 7.0 0.00 0.00 0.00 73 1018.2
20260510193036 59 223 1.7 9.6 0.00 0.00 0.00 73 1018.2
20260510191535 59 202 2.6 7.8 0.00 0.00 0.00 76 1018.1
20260510190033 59 203 1.7 8.7 0.00 0.00 0.00 75 1018.1
20260510184535 60 161 3.5 6.1 0.00 0.00 0.00 73 1017.9
20260510183031 59 196 2.6 7.0 0.00 0.00 0.00 76 1017.7
20260510181529 58 177 1.7 7.0 0.00 0.00 0.00 77 1017.7
20260510180027 60 136 1.7 10.4 0.00 0.00 0.00 74 1017.6
20260510174524 59 188 2.6 9.6 0.00 0.00 0.00 76 1017.3
20260510173020 58 173 4.3 10.4 0.00 0.00 0.00 77 1017.3
20260510171518 57 165 3.5 8.7 0.00 0.00 0.00 77 1017.2
20260510170016 57 180 3.5 9.6 0.00 0.00 0.00 79 1017.4
20260510164515 56 189 1.7 10.4 0.00 0.00 0.00 80 1017.2
20260510163017 57 190 2.6 7.8 0.00 0.00 0.00 78 1016.8
20260510161508 57 174 4.3 8.7 0.00 0.00 0.00 75 1016.4
20260510160017 56 153 1.7 4.3 0.00 0.00 0.00 75 1016.4
20260510154502 55 167 0.9 4.3 0.00 0.00 0.00 79 1016.4
20260510153102 55 200 1.7 6.1 0.00 0.00 0.00 81 1016.2
20260510151559 54 148 0.9 4.3 0.00 0.00 0.00 79 1016.2
20260510150057 54 174 0.0 3.5 0.00 0.00 0.00 83 1016.0
20260510144555 54 150 0.9 4.3 0.00 0.00 0.00 83 1016.5
20260510143053 54 180 0.9 5.2 0.00 0.00 0.00 83 1016.4
20260510141556 53 144 0.0 1.7 0.00 0.00 0.00 84 1016.1
20260510140055 53 175 1.7 3.5 0.00 0.00 0.00 85 1016.1
20260510134550 53 159 0.9 5.2 0.00 0.00 0.00 86 1016.1
20260510133046 52 184 0.9 4.3 0.00 0.00 0.00 87 1016.1
20260510131543 52 160 0.0 0.0 0.00 0.00 0.00 88 1016.0
20260510130042 52 160 0.0 2.6 0.00 0.00 0.00 87 1015.8
20260510124548 52 160 0.9 4.3 0.00 0.00 0.00 87 1015.7
20260510123039 52 232 2.6 12.2 0.00 0.00 0.00 88 1015.9
20260510121538 52 180 1.7 6.1 0.00 0.00 0.00 88 1015.9
20260510120037 52 132 0.9 4.3 0.00 0.00 0.00 89 1016.0
20260510114541 52 188 0.0 4.3 0.00 0.00 0.00 89 1015.8
20260510113037 52 263 0.9 2.6 0.00 0.00 0.00 88 1015.7
20260510111535 52 90 0.0 0.9 0.00 0.00 0.00 87 1015.9
20260510110039 52 90 0.0 1.7 0.00 0.00 0.00 89 1016.0
20260510104536 52 90 0.0 0.0 0.00 0.00 0.00 88 1016.0
20260510103032 52 90 0.0 0.0 0.00 0.00 0.00 88 1015.9
20260510101531 52 90 0.0 1.7 0.00 0.00 0.00 88 1015.9
20260510100030 52 90 0.0 1.7 0.00 0.00 0.00 88 1016.1
20260510094538 52 84 0.0 1.7 0.00 0.00 0.00 87 1016.2
20260510093026 52 63 0.0 1.7 0.00 0.00 0.00 86 1016.0
20260510091526 53 62 0.0 1.7 0.00 0.00 0.00 85 1016.0
20260510090026 53 154 0.9 3.5 0.00 0.00 0.00 84 1015.9
20260510084524 54 184 0.0 4.3 0.00 0.00 0.00 84 1015.9
20260510083023 54 183 0.9 4.3 0.00 0.00 0.00 84 1015.8
20260510081534 54 193 0.9 5.2 0.00 0.00 0.00 84 1015.8
20260510080030 54 157 0.0 2.6 0.00 0.00 0.00 84 1015.8
20260510074519 54 173 0.0 3.5 0.00 0.00 0.00 84 1015.6
20260510073017 53 177 0.0 3.5 0.00 0.00 0.00 86 1015.6
20260510071514 53 159 0.9 5.2 0.00 0.00 0.00 86 1015.7
20260510070013 53 47 0.0 0.0 0.00 0.00 0.00 85 1015.7
20260510064516 53 47 0.0 0.0 0.00 0.00 0.00 84 1015.7
20260510063016 53 47 0.0 0.0 0.00 0.00 0.00 82 1015.6
20260510061521 53 47 0.0 0.0 0.00 0.00 0.00 82 1015.6
20260510060010 53 47 0.0 0.0 0.00 0.00 0.00 82 1015.6
20260510054509 53 47 0.0 0.0 0.00 0.00 0.00 82 1015.5
20260510053009 53 47 0.0 0.0 0.00 0.00 0.00 81 1015.7
20260510051517 54 47 0.0 0.0 0.00 0.00 0.00 79 1015.8
20260510050009 54 47 0.0 0.0 0.00 0.00 0.00 80 1015.9
20260510044509 55 47 0.0 0.0 0.00 0.00 0.00 80 1015.9
20260510043017 55 47 0.0 0.0 0.00 0.00 0.00 78 1015.7
20260510041507 56 47 0.0 0.0 0.00 0.00 0.00 76 1015.6
20260510040006 57 47 0.0 0.0 0.00 0.00 0.00 73 1015.4
20260510034506 58 47 0.0 0.0 0.00 0.00 0.00 70 1015.5
20260510033005 59 47 0.0 0.0 0.00 0.00 0.00 70 1015.4
20260510031505 60 35 0.0 0.0 0.00 0.00 0.00 68 1015.5
20260510030009 61 35 0.0 0.9 0.00 0.00 0.00 67 1015.6
20260510024503 62 35 0.0 1.7 0.00 0.00 0.00 65 1015.6
20260510023005 64 35 0.0 1.7 0.00 0.00 0.00 65 1015.7
20260510021502 65 340 0.0 2.6 0.00 0.00 0.00 61 1015.7
20260510020101 66 348 1.7 4.3 0.00 0.00 0.00 58 1015.8
20260510014615 66 23 0.9 2.6 0.00 0.00 0.00 61 1016.1
20260510013104 66 22 0.0 2.6 0.00 0.00 0.00 61 1016.5
20260510011554 66 24 0.0 3.5 0.00 0.00 0.00 63 1016.6
20260510010053 66 24 0.9 3.5 0.00 0.00 0.00 59 1016.8
20260510004555 66 340 1.7 4.3 0.00 0.00 0.00 57 1016.9
20260510003052 66 336 0.9 3.5 0.00 0.00 0.00 61 1017.0
20260510001548 67 355 0.9 4.3 0.00 0.00 0.00 56 1017.3
20260510000046 67 160 0.0 5.2 0.00 0.00 0.00 57 1017.8